Regional Weather Roundup
Issued by NWS

Home | Current Version | Previous Version | Text Only | Print | Product List | Glossary On
Versions: 1 2 3 4 5 6 7 8 9 10 11 12 13 14 15 16 17 18 19 20 21 22 23 24 25 26 27 28 29 30 31 32 33 34 35 36 37 38 39 40 41 42 43 44 45 46 47 48 49 50
000
ASUS43 KMKX 300921
RWRWI

WISCONSIN REGIONAL WEATHER ROUNDUP
NATIONAL WEATHER SERVICE MILWAUKEE/SULLIVAN WI
400 AM CDT WED JUL 30 2014

NOTE: "FAIR" INDICATES FEW OR NO CLOUDS BELOW 12,000 FEET WITH NO
SIGNIFICANT WEATHER AND/OR OBSTRUCTIONS TO VISIBILITY.

WIZ001-002-006>008-014>016-023>028-301000-
NORTHWEST WISCONSIN

CITY           SKY/WX    TMP DP  RH WIND       PRES   REMARKS
SUPERIOR ARPT  FOG       49  49 100 CALM      30.06S VSB 1/2
ASHLAND        FOG       49  49 100 SW5       30.07S VSB 3/4
HAYWARD        FOG       50  50 100 CALM      30.07R VSB 1/4
SIREN          FOG       54  53  98 CALM      30.07R VSB 1/2
RICE LAKE      FOG       53  51  95 CALM      30.08R VSB<1/4
LADYSMITH      CLOUDY    55  55  97 N5        30.08S FOG
EAU CLAIRE     CLEAR     54  54 100 CALM      30.05R FOG
MENOMONIE      SUNNY     57  55  95 N3        30.06R
NEW RICHMOND   CLEAR     55  54  98 CALM      30.06S
OSCEOLA        PTCLDY    54  54 100 CALM      30.09S
$$

WIZ003>005-009-010-017-018-301000-
NORTH CENTRAL WISCONSIN

CITY           SKY/WX    TMP DP  RH WIND       PRES   REMARKS
WOODRUFF       CLEAR     49  47  93 CALM      30.05S FOG
RHINELANDER    CLEAR     50  49  96 CALM      30.05S
EAGLE RIVER    FOG       51  51 100 CALM      30.05R VSB 1/4
LAND O LAKES   FOG       51  51  99 CALM      30.06S VSB 1
PHILLIPS       CLOUDY    54  54  99 CALM      30.06R
TOMAHAWK       FOG       44  43  97 CALM      30.06R VSB 1/2
MEDFORD        FOG       52  52  99 N3        30.05R VSB 1/2
MERRILL        FOG       52  52 100 CALM      30.05R VSB 1/4
$$

WIZ029-030-035-036-043>047-301000-
CENTRAL WISCONSIN

CITY           SKY/WX    TMP DP  RH WIND       PRES   REMARKS
WAUSAU         CLEAR     54  53  97 NW3       30.03R
MOSINEE        CLEAR     54  54 100 N6        30.05R
MARSHFIELD     CLEAR     54  52  93 NW6       30.04R FOG
STEVENS POINT  CLEAR     52  51  97 CALM      30.04R
WAUPACA        PTCLDY    58  56  92 NW6       30.03R
WAUTOMA        MOCLDY    58  56  93 NW6       30.03R
WISC RAPIDS    CLEAR     55  53  93 CALM      30.04S
CAMP DOUGLAS   FOG       54  54 100 W5        30.04S VSB 1/4
$$

WIZ011>013-019>022-031-037>040-048>050-301000-
NORTHEAST WISCONSIN

CITY           SKY/WX    TMP DP  RH WIND       PRES   REMARKS
ANTIGO         CLEAR     49  49 100 CALM      30.04R
STURGEON BAY   CLEAR     55  52  88 N5        30.00S
GREEN BAY      PTCLDY    57  57 100 N3        30.00R FOG
MANITOWOC      PTCLDY    58  57  97 MISG      29.99S
APPLETON       CLOUDY    57  55  94 CALM      30.01R
CLINTONVILLE   CLEAR     55  54  94 CALM      30.01S
OSHKOSH        MOCLDY    57  56  96 W7        30.00R
$$

WIZ032>034-041-042-053>061-301000-
SOUTHWEST WISCONSIN

CITY           SKY/WX    TMP DP  RH WIND       PRES   REMARKS
LA CROSSE      PTCLDY    60  58  92 CALM      30.04R FOG
SPARTA         CLOUDY    55  54  97 CALM      30.05S FOG
VIROQUA        FAIR      56  56 100 CALM      30.05S
BOSCOBEL       FOG       58  56  93 CALM      30.04S VSB 1/4
PRAIRIE DU CHI CLEAR     60  56  85 NW3       30.04S
PLATTEVILLE    FAIR      58  56  95 SW3       30.05R
$$

WIZ056-057-062-063-064-067-068-301000-
SOUTH CENTRAL WISCONSIN

CITY           SKY/WX    TMP DP  RH WIND       PRES   REMARKS
BARABOO/DELLS  CLEAR     56  54  93 W3        30.03R
LONE ROCK      CLEAR     60  55  83 W3        30.03S
WATERTOWN      MOCLDY    57  56  98 CALM      30.01S
MADISON        CLOUDY    61  57  87 VRB5      30.02S
MIDDLETON      PTSUNNY   60  58  94 CALM      30.03R
MONROE         PTCLDY    59  55  88 W6        30.03S
JANESVILLE     PTCLDY    57  54  88 CALM      30.01S
$$

WIZ051-052-058>065-066-070>072-301000-
SOUTHEAST WISCONSIN

CITY           SKY/WX    TMP DP  RH WIND       PRES   REMARKS
MILWAUKEE      MOCLDY    60  55  83 NW5       30.00R
WAUKESHA       MOCLDY    55  55 100 W7        30.01S
MILWAUKEE/TIMM CLOUDY    57  54  88 CALM      30.01R
RACINE         PTCLDY    58  55  90 W7        30.00S
BURLINGTON     PTCLDY    55  55 100 SW5       30.00S
KENOSHA        CLEAR     56  55  97 W3        30.00S
FOND DU LAC    CLEAR     54  53  97 CALM      30.01R
SHEBOYGAN      MOCLDY    58  56  93 NW6       29.99R
WEST BEND      PTCLDY    55  52  88 CALM      30.00R
JUNEAU         CLEAR     54  53  97 SW3       30.02S FOG
$$

LSZ147-162-301000-
LAKE SUPERIOR

STATION/POSITION TIME  TEMP    WIND        PRES    WAVE
                       AIR SEA DIR/SP/G            HT/PER
                 (UTC) (F)     (DEG/KT/KT) (MB)    (FT/S)
W MID LAKE BUOY  0850   47 43  240/  4/  4 1017.5R   0
PORT WING        0800   56     170/  2/  4 1017.9S
SAXON HARBOR     0800          180/  2/  4 1017.6S
$$

LMZ867-665-643>646-301000-
LAKE MICHIGAN

STATION/POSITION TIME  TEMP    WIND        PRES    WAVE
                       AIR SEA DIR/SP/G            HT/PER
                 (UTC) (F)     (DEG/KT/KT) (MB)    (FT/S)
N MID LAKE BUOY  0850   56 55  300/  4/  4 1014.8R   0
NORTHPORT PIER   0800   56      CALM  /  1 1015.6S
SISTER BAY       0710   57        CALM       N/A
ALGOMA LAKESHORE 0721          350/  5/  6   N/A
KEWAUNEE LAKESHO 0900   58      10/  4/  5 1016.2R
SHEBOYGAN LAKESH 0900   61     300/  8/  9 1015.4R
PORT WASHINGTON  0800   60     290/  6/  9 1015.9
ATWATER BUOY     0900   61     270/ 10     1016.4R
MILWAUKEE LAKESH 0900   61     300/  6/  9   N/A
S MID LAKE BUOY  0850   61 61  240/  6/ 10 1015.5F   1/ 3
KENOSHA   LAKESH 0900   60     270/ 10/ 14 1015.2F
$$

TC  - TEMPERATURE IN CELSIUS
VSB - VISIBILITY IN STATUTE MILES
WCI - WIND CHILL INDEX
HX  - HEAT INDEX




USA.gov is the U.S. government's official web portal to all federal, state and local government web resources and services.